Wind_Speed
10 10 14 15 15 5 13 9 8 5 4 11 13 8 12 20 19 20 21 22 23 24 23 24 26 27 27 27 26 24 21 18 18 15 14 13 10 8 7 7 6 6 7 9
6 18 18 10 9 6 10 8 8 2 6 9 5 11 10 20 22 23 24 23 23 23 21 23 26 28 30 30 28 26 24 22 20 17 15 13 11 11 9 8 7 7 8 9
21 16 12 12 11 11 9 10 7 5 7 4 2 7 10 15 18 21 22 23 23 25 24 24 25 29 30 31 30 30 28 25 24 20 18 16 15 12 10 7 7 9 10 12
14 8 17 14 16 13 13 12 6 8 7 4 4 4 7 15 18 21 25 26 26 26 26 25 25 29 30 30 28 28 29 29 25 24 22 19 17 14 11 9 8 9 11 14
16 16 18 19 20 17 9 8 10 7 6 2 5 6 3 6 15 22 28 30 28 28 28 29 28 29 30 28 28 26 27 30 28 26 25 22 21 17 13 12 10 10 11 12
16 4 12 20 13 17 11 9 6 5 2 6 10 9 9 7 14 18 26 30 30 28 27 26 27 27 29 29 28 26 27 28 30 30 28 26 24 20 17 13 13 12 13 13
16 7 5 9 16 14 13 11 3 4 5 6 2 6 15 9 8 12 25 32 31 29 27 26 27 28 31 31 30 29 28 29 30 31 30 28 25 22 19 16 15 14 15 15
15 15 13 13 17 13 22 17 9 8 6 5 3 6 4 3 5 19 20 30 29 29 27 26 27 29 31 32 32 31 31 31 31 31 31 28 27 24 21 18 16 16 17 17
13 16 16 11 12 17 13 12 13 4 2 4 3 5 13 1 0 14 18 26 29 30 28 28 27 29 30 31 33 33 33 32 32 32 31 29 27 25 22 18 17 17 16 16
9 10 13 19 10 15 14 18 10 5 7 7 5 6 9 10 2 11 17 25 27 27 26 26 27 29 29 29 30 31 33 33 32 31 31 29 27 24 21 18 17 16 16 16
11 6 11 16 17 17 9 14 6 12 4 8 5 7 5 10 4 15 18 25 27 27 27 28 28 29 29 28 30 31 32 33 34 32 30 28 26 24 21 19 17 16 17 17
13 7 8 17 22 15 21 17 19 12 7 2 3 6 2 6 3 19 21 23 23 27 29 30 30 30 30 30 30 31 32 32 31 30 29 28 27 24 21 19 17 17 19 18
6 11 9 8 6 11 19 17 21 14 8 11 12 6 1 3 2 17 22 21 21 23 27 29 31 33 33 32 32 32 32 32 30 30 29 29 27 23 21 19 17 19 19 17
6 6 19 14 20 18 23 20 17 21 12 12 15 16 14 8 3 11 19 20 21 27 29 31 34 37 36 34 33 34 33 33 33 34 33 31 28 24 22 20 19 20 18 17
4 10 11 21 2 17 18 25 21 22 21 18 18 14 16 12 6 13 21 20 21 24 29 34 37 38 37 37 37 37 37 37 36 35 34 31 28 25 23 21 21 20 18 16
10 2 3 19 21 10 18 18 27 24 22 17 16 18 16 14 10 8 12 21 27 34 38 40 40 38 38 38 39 40 41 41 40 37 34 30 28 27 26 25 24 22 19 17
6 6 3 16 18 20 23 23 16 22 26 25 22 23 10 9 10 17 22 22 31 39 42 45 45 45 42 41 42 44 44 43 40 37 35 32 28 27 28 29 27 24 21 19
8 8 4 3 11 22 17 19 22 14 17 22 22 15 18 18 21 21 24 26 33 36 39 40 47 50 47 44 45 46 43 42 41 40 38 35 32 29 30 32 30 26 23 21
17 6 4 4 14 7 12 7 22 18 21 17 20 17 14 15 7 16 23 26 26 26 27 27 39 47 51 50 46 46 47 47 45 44 42 38 34 33 32 33 32 29 25 21
15 15 8 3 8 14 13 13 11 17 20 18 22 18 14 9 9 10 20 21 18 21 24 24 29 39 46 52 52 52 51 50 49 46 42 38 34 33 33 33 32 29 26 21
7 8 15 13 5 7 9 16 15 17 7 22 27 27 25 13 14 25 20 16 18 21 19 20 24 31 32 36 44 47 48 49 45 38 35 32 30 30 32 31 31 29 27 24
9 11 7 8 8 11 7 2 13 6 15 13 28 32 27 34 33 29 30 21 20 24 25 24 24 25 26 25 29 34 37 36 37 34 31 29 27 27 30 31 31 30 27 25
4 2 2 8 6 6 14 16 19 17 15 22 24 31 39 38 36 28 26 27 29 27 28 27 27 27 25 26 28 28 30 28 28 27 27 26 25 27 28 30 32 31 29 27
1 4 2 4 4 14 32 17 8 18 18 23 22 25 36 31 28 22 19 29 29 28 26 23 24 25 25 27 29 30 29 26 26 25 25 25 26 28 29 31 31 30 29 26
4 6 5 5 9 26 2 18 24 27 26 25 26 24 25 27 25 20 18 25 33 29 30 25 25 29 30 31 33 33 28 26 27 25 25 26 28 29 32 33 32 31 26 21
5 7 5 3 14 14 22 26 27 28 29 26 22 25 30 29 24 24 21 17 28 32 31 28 26 29 31 33 33 29 27 27 27 27 28 29 31 33 34 33 34 30 22 18
Wind_Direction
191 197 201 197 206 235 195 204 222 229 199 198 227 247 194 185 191 194 194 193 198 204 205 203 201 202 203 202 203 203 205 201 202 207 208 217 220 230 250 278 282 311 332 341
170 216 205 198 183 159 192 214 218 194 169 213 221 241 204 193 199 198 197 199 200 203 198 201 205 205 206 205 207 209 210 211 214 216 218 227 229 238 249 262 267 288 311 322
201 203 185 187 178 184 201 216 199 240 148 201 204 239 195 206 205 207 209 206 204 205 201 201 200 203 204 208 212 216 216 216 220 221 227 232 234 236 240 246 266 281 300 312
209 186 188 193 206 195 212 216 189 165 183 284 208 282 220 202 203 208 210 208 206 206 206 205 204 207 207 210 214 219 221 220 219 221 227 232 235 237 241 252 264 282 305 313
193 184 189 199 202 190 221 167 191 201 213 211 198 268 254 181 208 211 209 208 206 205 205 206 207 211 212 213 216 218 219 219 219 222 227 233 235 238 245 255 269 289 306 320
207 215 197 209 200 193 141 110 93 106 216 248 243 233 273 197 222 213 205 207 204 201 202 206 208 211 215 215 215 216 216 218 219 222 225 232 236 240 247 253 272 287 297 305
203 203 209 187 189 186 187 166 179 194 211 241 98 213 254 235 226 212 195 198 199 198 198 200 205 208 213 213 216 217 217 216 216 219 224 230 235 241 247 253 266 280 296 304
187 208 193 188 205 184 195 186 210 213 216 225 124 234 248 172 277 217 199 189 188 191 194 199 205 208 211 212 214 215 215 213 214 218 224 229 236 242 246 253 263 277 291 301
199 209 186 191 192 179 180 209 200 174 79 238 204 262 278 258 213 183 175 176 184 187 191 199 204 208 209 210 211 212 214 214 217 221 226 229 234 239 247 256 267 274 283 294
189 201 203 198 192 209 194 175 184 215 211 231 219 270 254 274 209 185 166 178 184 185 187 198 203 207 209 210 211 213 216 216 218 222 227 230 234 240 247 255 262 270 275 281
171 225 178 201 205 180 175 190 217 190 231 219 242 244 227 273 191 197 179 182 180 183 189 198 203 205 207 209 211 213 215 216 219 222 227 231 236 242 248 253 258 264 266 268
199 198 209 199 201 210 197 195 193 195 181 234 276 263 358 292 242 193 184 185 186 187 191 199 202 204 206 210 212 213 216 219 219 224 228 233 238 241 245 248 252 255 257 259
207 212 190 182 192 199 209 200 200 201 176 195 212 234 356 23 184 193 180 188 188 188 192 200 203 206 209 210 214 216 218 220 224 227 230 234 237 240 243 245 246 248 252 255
202 227 221 209 210 189 205 196 205 198 200 192 217 234 249 299 279 199 185 191 190 196 200 204 208 210 211 212 215 218 220 223 227 231 234 238 240 240 242 240 238 245 250 250
24 223 214 229 237 203 203 208 202 210 213 211 213 228 245 251 244 223 198 186 190 199 204 207 211 212 214 215 216 219 221 227 230 234 237 239 240 238 235 233 233 240 245 240
346 207 261 232 227 224 220 214 213 211 215 223 227 229 233 234 222 222 225 196 200 208 214 211 211 212 214 215 216 218 221 226 231 235 238 240 239 235 230 229 231 235 238 228
313 333 342 225 213 235 244 228 222 222 216 216 218 226 195 207 204 221 230 210 212 217 219 216 213 212 212 214 217 222 224 229 232 236 239 239 236 232 226 227 227 228 230 224
267 319 302 239 185 220 247 230 226 227 227 223 232 228 222 228 228 234 226 221 219 225 228 232 222 216 215 217 220 226 230 235 237 240 241 239 234 230 226 225 223 221 223 223
218 236 265 235 212 235 222 208 210 206 231 222 231 223 217 222 222 247 239 237 239 249 252 251 226 218 216 219 223 227 230 234 238 242 244 242 236 229 224 221 218 217 219 219
207 215 221 193 226 231 221 212 201 200 237 219 222 236 238 199 221 240 239 232 251 262 257 254 233 224 218 219 222 227 231 234 238 240 242 242 235 230 225 219 215 213 215 217
165 197 217 228 261 277 252 218 175 195 255 210 213 221 227 208 221 243 254 253 271 262 255 257 236 226 227 220 225 231 235 239 241 241 240 240 235 229 225 218 212 210 210 209
172 169 186 207 212 238 248 169 215 246 249 232 212 213 216 226 240 251 261 258 261 253 255 255 231 213 218 223 224 227 233 238 239 236 233 232 228 221 219 212 207 206 207 212
205 280 221 212 208 301 310 305 304 322 278 236 233 222 218 227 237 239 250 257 255 247 253 250 221 214 214 220 223 228 228 226 222 219 218 216 212 211 211 207 204 201 205 210
80 25 256 295 79 326 302 298 306 333 311 275 265 249 220 214 211 223 249 247 240 240 242 224 212 211 219 221 222 221 222 213 205 202 202 202 199 197 200 199 201 202 206 207
343 337 330 274 337 331 126 340 334 321 311 296 278 255 230 219 223 234 251 256 235 233 230 229 223 221 221 219 215 215 208 201 192 191 190 186 192 194 192 194 197 205 208 219
51 34 32 355 334 312 286 313 317 322 311 294 285 259 245 237 237 247 248 271 239 229 228 227 221 217 215 215 211 203 195 193 189 184 184 186 188 190 193 191 194 198 200 195
Height
1493 1494 1497 1493 1493 1494 1496 1503 1507 1505 1504 1509 1509 1510 1515 1522 1526 1528 1531 1533 1536 1539 1543 1546 1549 1553 1557 1561 1565 1568 1570 1574 1576 1577 1579 1580 1582 1584 1585 1585 1586 1586 1586 1585
1491 1487 1483 1488 1494 1496 1498 1502 1505 1503 1504 1507 1508 1506 1510 1515 1516 1520 1523 1527 1531 1535 1539 1542 1545 1548 1553 1557 1561 1564 1567 1571 1573 1575 1577 1579 1581 1582 1583 1584 1585 1586 1585 1584
1479 1476 1483 1487 1492 1497 1497 1498 1501 1501 1504 1506 1508 1505 1508 1509 1513 1517 1519 1522 1525 1529 1533 1537 1540 1543 1548 1552 1556 1560 1563 1567 1570 1573 1575 1577 1579 1581 1582 1584 1584 1584 1584 1583
1478 1477 1479 1483 1487 1488 1498 1490 1495 1501 1503 1511 1504 1508 1499 1496 1503 1509 1512 1514 1518 1523 1528 1533 1535 1539 1543 1547 1552 1555 1559 1563 1566 1570 1572 1574 1577 1579 1581 1582 1582 1583 1583 1582
1473 1474 1478 1480 1476 1482 1489 1486 1492 1496 1501 1504 1507 1509 1481 1491 1497 1496 1501 1505 1510 1515 1521 1526 1530 1534 1538 1543 1547 1551 1554 1558 1562 1566 1569 1571 1574 1576 1578 1579 1580 1581 1581 1580
1466 1470 1470 1467 1473 1478 1485 1490 1498 1501 1502 1514 1498 1501 1476 1485 1476 1479 1490 1497 1502 1508 1514 1520 1526 1530 1534 1539 1542 1546 1549 1553 1557 1561 1565 1568 1571 1574 1575 1577 1578 1579 1579 1578
1468 1469 1467 1469 1474 1478 1478 1485 1513 1519 1519 1512 1503 1507 1476 1466 1467 1467 1473 1485 1493 1501 1508 1513 1519 1523 1528 1532 1537 1541 1545 1548 1552 1556 1560 1564 1567 1570 1572 1574 1575 1576 1576 1576
1472 1483 1464 1460 1462 1469 1475 1475 1499 1525 1515 1501 1507 1500 1470 1458 1460 1464 1468 1477 1486 1495 1501 1507 1512 1517 1522 1526 1531 1536 1539 1543 1548 1552 1556 1560 1563 1566 1568 1571 1572 1573 1573 1573
1464 1463 1453 1455 1457 1462 1476 1484 1471 1495 1506 1500 1487 1477 1461 1456 1458 1460 1465 1474 1481 1488 1494 1500 1507 1512 1517 1521 1525 1530 1535 1539 1544 1548 1552 1556 1559 1562 1565 1568 1569 1570 1570 1570
1452 1465 1451 1453 1456 1457 1459 1464 1489 1490 1511 1514 1489 1488 1472 1455 1458 1461 1463 1469 1477 1483 1490 1496 1502 1507 1512 1517 1522 1527 1531 1535 1540 1544 1548 1552 1555 1558 1562 1564 1566 1567 1566 1566
1446 1450 1451 1448 1452 1452 1463 1467 1469 1467 1481 1492 1498 1476 1451 1449 1452 1458 1459 1466 1472 1478 1484 1491 1498 1503 1509 1514 1518 1523 1527 1531 1535 1539 1544 1548 1551 1554 1558 1560 1562 1563 1562 1562
1439 1441 1451 1447 1439 1441 1442 1449 1456 1471 1496 1487 1480 1472 1447 1448 1450 1455 1459 1464 1469 1475 1481 1488 1494 1500 1505 1509 1514 1518 1523 1526 1531 1536 1540 1544 1547 1551 1554 1556 1558 1558 1558 1559
1440 1438 1450 1455 1447 1446 1443 1444 1443 1448 1460 1483 1482 1468 1447 1447 1450 1453 1457 1463 1468 1474 1479 1485 1491 1495 1500 1505 1510 1515 1518 1523 1528 1531 1535 1538 1542 1547 1549 1552 1554 1554 1555 1556
1451 1441 1434 1437 1431 1430 1446 1441 1444 1444 1460 1461 1461 1452 1445 1445 1450 1454 1456 1461 1466 1471 1476 1482 1486 1490 1495 1501 1505 1510 1514 1518 1522 1526 1529 1533 1538 1542 1545 1547 1549 1549 1551 1552
1456 1444 1440 1429 1430 1428 1431 1435 1440 1444 1440 1453 1448 1457 1445 1445 1446 1450 1451 1457 1464 1468 1472 1475 1480 1485 1490 1495 1500 1504 1508 1512 1516 1520 1524 1528 1533 1537 1539 1542 1543 1545 1547 1548
1459 1447 1445 1436 1428 1431 1432 1429 1428 1437 1437 1445 1441 1445 1437 1442 1448 1451 1451 1454 1457 1460 1464 1468 1473 1479 1483 1487 1492 1496 1500 1504 1509 1514 1518 1523 1527 1530 1533 1536 1538 1540 1542 1545
1466 1459 1451 1439 1430 1432 1436 1424 1427 1427 1426 1429 1440 1430 1434 1440 1443 1444 1446 1448 1449 1451 1454 1459 1463 1468 1475 1480 1485 1489 1493 1497 1503 1507 1512 1516 1520 1523 1526 1528 1531 1535 1538 1540
1467 1466 1458 1441 1434 1450 1408 1409 1418 1428 1425 1423 1423 1424 1427 1430 1433 1436 1440 1443 1442 1443 1447 1448 1453 1460 1467 1473 1479 1483 1488 1493 1497 1500 1504 1508 1512 1516 1519 1522 1526 1530 1533 1536
1465 1466 1459 1446 1432 1414 1411 1411 1413 1422 1424 1421 1423 1422 1425 1427 1431 1431 1433 1436 1436 1437 1438 1438 1440 1446 1457 1464 1470 1475 1480 1484 1488 1492 1495 1500 1504 1508 1511 1515 1520 1525 1529 1533
1456 1458 1456 1448 1438 1430 1409 1403 1408 1412 1420 1411 1417 1419 1422 1427 1429 1421 1425 1428 1429 1430 1431 1432 1434 1440 1447 1454 1460 1466 1470 1474 1477 1483 1487 1492 1497 1502 1506 1510 1515 1521 1526 1530
1453 1457 1453 1448 1442 1422 1405 1400 1405 1425 1409 1402 1407 1410 1414 1419 1415 1415 1419 1420 1422 1424 1425 1427 1429 1433 1438 1446 1453 1458 1462 1465 1471 1478 1483 1487 1491 1496 1501 1507 1513 1517 1522 1527
1432 1438 1443 1444 1445 1438 1399 1403 1407 1399 1396 1397 1397 1401 1405 1407 1409 1411 1411 1414 1416 1418 1420 1421 1423 1427 1432 1438 1444 1450 1453 1459 1464 1471 1475 1480 1485 1490 1495 1501 1507 1513 1519 1523
1424 1421 1418 1419 1414 1404 1405 1405 1401 1399 1396 1393 1393 1392 1394 1399 1402 1403 1404 1406 1409 1410 1412 1413 1415 1420 1426 1432 1437 1442 1446 1451 1457 1463 1468 1474 1479 1484 1490 1496 1502 1508 1514 1519
1423 1425 1421 1421 1412 1411 1401 1401 1401 1398 1395 1389 1388 1388 1386 1389 1392 1395 1396 1398 1400 1402 1405 1406 1409 1415 1420 1425 1431 1435 1440 1445 1452 1457 1463 1469 1474 1479 1486 1492 1499 1504 1508 1514
1428 1425 1426 1418 1414 1405 1398 1400 1399 1394 1390 1384 1382 1384 1385 1384 1385 1388 1389 1388 1390 1394 1398 1401 1404 1408 1413 1418 1422 1427 1434 1440 1446 1453 1458 1464 1471 1476 1481 1487 1494 1500 1506 1511
1430 1432 1428 1424 1427 1424 1411 1403 1399 1395 1387 1381 1378 1377 1378 1380 1380 1381 1382 1383 1383 1386 1390 1393 1396 1401 1406 1411 1417 1423 1430 1436 1442 1447 1453 1459 1465 1471 1477 1483 1489 1497 1503 1509